IU2EVW-13 Weather Reports


time (UTC)temp
C
wind
direction
speed
KPH
gust
KPH
rain 1hr
cm
rain 24hr
cm
rain mn
cm
humidity
%
barometer
mb
20260506024054 9 0.0 0.0 0.00 0.00 0.00 85 1012.7
20260506022053 9 0.0 0.0 0.00 0.00 0.00 86 1013.1
20260506020052 9 0.0 0.0 0.00 0.00 0.00 84 1013.0
20260506014050 9 0.0 0.0 0.00 0.00 0.00 85 1013.2
20260506012049 9 0.0 0.0 0.00 0.00 0.00 85 1013.0
20260506010048 9 0.0 0.0 0.00 0.00 0.00 84 1013.5
20260506004046 9 0.0 0.0 0.00 0.00 0.00 84 1013.7
20260506002045 9 0.0 0.0 0.00 0.00 0.00 85 1013.8
20260506000044 9 0.0 0.0 0.00 0.00 0.00 86 1014.0
20260505234042 9 0.0 0.0 0.00 0.00 0.00 84 1014.2
20260505232041 9 0.0 0.0 0.00 0.00 0.00 84 1014.4
20260505230040 9 0.0 0.0 0.00 0.00 0.00 82 1014.3
20260505224039 9 0.0 0.0 0.00 0.00 0.00 82 1014.2
20260505222037 10 0.0 0.0 0.00 0.00 0.00 81 1014.4
20260505220036 9 0.0 0.0 0.00 0.00 0.00 82 1014.7
20260505214034 9 0.0 0.0 0.00 0.00 0.00 82 1014.9
20260505212033 9 0.0 0.0 0.00 0.00 0.00 84 1015.1
20260505210032 9 0.0 0.0 0.00 0.00 0.00 83 1015.2
20260505204030 9 0.0 0.0 0.00 0.00 0.00 84 1015.2
20260505202029 9 0.0 0.0 0.00 0.00 0.00 83 1015.1
20260505200028 9 0.0 0.0 0.00 0.00 0.00 83 1015.0
20260505194026 10 0.0 0.0 0.00 0.00 0.00 83 1015.1
20260505192025 10 0.0 0.0 0.00 0.00 0.00 83 1014.9
20260505190024 9 0.0 0.0 0.00 0.00 0.00 84 1014.9
20260505184022 10 0.0 0.0 0.00 0.00 0.00 83 1014.8
20260505182021 10 0.0 0.0 0.00 0.00 0.00 82 1014.6
20260505180020 10 0.0 0.0 0.00 0.00 0.00 82 1014.6
20260505174018 10 0.0 0.0 0.00 0.00 0.00 81 1014.6
20260505172018 10 0.0 0.0 0.00 0.00 0.00 80 1014.6
20260505170016 10 0.0 0.0 0.00 0.00 0.00 81 1014.5
20260505164014 11 0.0 0.0 0.00 0.00 0.00 79 1014.5
20260505162013 10 0.0 0.0 0.00 0.00 0.00 78 1014.7
20260505152009 11 0.0 0.0 0.00 0.00 0.00 78 1014.8
20260505123957 10 0.0 0.0 0.00 0.00 0.00 81 1015.3
20260505121955 11 0.0 0.0 0.00 0.00 0.00 78 1015.3
20260505115954 11 0.0 0.0 0.00 0.00 0.00 78 1015.3
20260505113953 12 0.0 0.0 0.00 0.00 0.00 71 1015.3
20260505111951 11 0.0 0.0 0.00 0.00 0.00 73 1015.4
20260505101947 11 0.0 0.0 0.00 0.00 0.00 78 1015.6
20260505095944 11 0.0 0.0 0.00 0.00 0.00 77 1015.8
20260505093943 10 0.0 0.0 0.00 0.00 0.00 76 1015.6
20260505091942 10 0.0 0.0 0.00 0.00 0.00 78 1015.6
20260505085940 10 0.0 0.0 0.00 0.00 0.00 80 1015.6
20260505083939 10 0.0 0.0 0.00 0.00 0.00 80 1015.6
20260505081938 9 0.0 0.0 0.00 0.00 0.00 77 1015.5
20260505075937 10 0.0 0.0 0.00 0.00 0.00 74 1015.4
20260505073935 10 0.0 0.0 0.00 0.00 0.00 70 1015.2
20260505071933 10 0.0 0.0 0.00 0.00 0.00 67 1015.0
20260505065932 10 0.0 0.0 0.00 0.00 0.00 63 1014.7
20260505063931 10 0.0 0.0 0.00 0.00 0.00 60 1014.8
20260505061929 11 0.0 0.0 0.00 0.00 0.00 57 1014.5
20260505055928 11 0.0 0.0 0.00 0.00 0.00 54 1014.5
20260505053926 11 0.0 0.0 0.00 0.00 0.00 54 1014.1
20260505051925 11 0.0 0.0 0.00 0.00 0.00 53 1013.9
20260505035919 11 0.0 0.0 0.00 0.00 0.00 54 1014.1
20260505033918 11 0.0 0.0 0.00 0.00 0.00 53 1014.5
20260505031917 10 0.0 0.0 0.00 0.00 0.00 55 1014.8
20260505025916 11 0.0 0.0 0.00 0.00 0.00 51 1014.9